Location: Newark
(7.0858°N, 171.3717°E)
Time: 04:43:55
(UTC+00:00)

Vanguard 2 - Pass Details

Date: 28 November 2020
Orbit: 553 x 2937 km, 32.9° (Epoch: 26 January)

Event Time Altitude Azimuth Distance (km) Brightness Sun altitude
Rises 19:51:17 0° 244° (WSW) 5,777 11.6 17.6°
Reaches altitude 10° 19:55:47 10° 247° (WSW) 4,394 11.1 18.6°
Maximum altitude 20:06:34 57° 323° (NW) 1,513 9.0 21.0°
Drops below altitude 10° 20:12:56 10° 42° (NE) 2,662 10.6 22.4°
Sets 20:15:04 0° 47° (NE) 3,393 11.1 22.9°
